Lancaster, PA

7:35 PM EST on February 26, 2017 (GMT -0500)
Lancaster

Weather History for KLNS - April, 2013

Change the Weather History Date:

Saturday, April 20, 2013

  Actual Average Record
Temperature  
Mean Temperature 48 °F -  
Max Temperature 55 °F 64 °F 88 °F (1985)
Min Temperature 39 °F 42 °F 30 °F (1983)
Degree Days  
Heating Degree Days 16    
Moisture  
Dew Point 31 °F    
Average Humidity 54    
Maximum Humidity 86    
Minimum Humidity 35    
Precipitation  
Precipitation 0.09 in - - ()
Sea Level Pressure  
Sea Level Pressure 30.03 in    
Wind  
Wind Speed 11 mph (WNW)    
Max Wind Speed 22 mph    
Max Gust Speed 31 mph    
Visibility 10 miles    
Events Rain    
Averages and records for this station are not official NWS values.
T = Trace of Precipitation, MM = Missing Value Source: NWS Daily Summary

Daily Weather History Graph

Daily Weather History Graph

Search for Another Location

Airport or City:

Trip Planner

Search our weather history database for the weather conditions in past years. The results will help you decide how hot, cold, wet, or windy it might be!

Date:

Astronomy

Apr. 20, 2013 Rise Set
Actual Time 6:19 AM EDT 7:49 PM EDT
Civil Twilight 5:51 AM EDT 8:17 PM EDT
Nautical Twilight 5:16 AM EDT 8:52 PM EDT
Astronomical Twilight 4:40 AM EDT 9:28 PM EDT
Moon 2:30 PM EDT (4/20) 3:07 AM EDT (4/20)
Length of Visible Light 14h 26m
Length of Day
13h 29m
Waxing Gibbous, 71% of the Moon is Illuminated
Apr 20
Waxing Gibbous
Apr 25
Full
May 2
Last Quarter
May 9
New
May 18
First Quarter

Hourly Weather History & Observations

Time (EDT) Temp. Windchill Dew Point Humidity Pressure Visibility Wind Dir Wind Speed Gust Speed Precip Events Conditions
12:53 AM 48.9 °F - 43.0 °F 80% 29.78 in 5.0 mi NNW 5.8 mph - 0.04 in Rain Rain
1:53 AM 48.9 °F - 41.0 °F 74% 29.80 in 9.0 mi NW 9.2 mph - 0.03 in Rain Light Rain
2:53 AM 48.0 °F - 42.1 °F 80% 29.81 in 9.0 mi NW 3.5 mph - 0.02 in   Overcast
3:53 AM 46.9 °F - 43.0 °F 86% 29.83 in 8.0 mi West 5.8 mph - N/A   Overcast
4:53 AM 46.9 °F - 35.1 °F 63% 29.87 in 10.0 mi WNW 9.2 mph - N/A   Overcast
5:53 AM 45.0 °F 41.8 °F 35.1 °F 68% 29.89 in 10.0 mi West 5.8 mph - N/A   Scattered Clouds
6:53 AM 45.0 °F 37.9 °F 32.0 °F 60% 29.92 in 10.0 mi WNW 16.1 mph - N/A   Clear
7:53 AM 45.0 °F 37.6 °F 32.0 °F 60% 29.96 in 10.0 mi West 17.3 mph 24.2 mph N/A   Clear
8:53 AM 45.0 °F 39.3 °F 32.0 °F 60% 29.99 in 10.0 mi West 11.5 mph - N/A   Clear
9:53 AM 48.0 °F - 30.0 °F 50% 30.01 in 10.0 mi West 17.3 mph 28.8 mph N/A   Scattered Clouds
10:53 AM 48.9 °F - 28.9 °F 46% 30.04 in 10.0 mi West 15.0 mph 26.5 mph N/A   Mostly Cloudy
11:53 AM 50.0 °F - 30.0 °F 46% 30.04 in 10.0 mi West 17.3 mph 25.3 mph N/A   Mostly Cloudy
12:53 PM 54.0 °F - 30.9 °F 41% 30.04 in 10.0 mi WNW 19.6 mph 31.1 mph N/A   Scattered Clouds
1:53 PM 52.0 °F - 28.9 °F 41% 30.04 in 10.0 mi West 19.6 mph 29.9 mph N/A   Scattered Clouds
2:53 PM 54.0 °F - 28.0 °F 37% 30.05 in 10.0 mi West 19.6 mph 29.9 mph N/A   Scattered Clouds
3:53 PM 53.1 °F - 28.0 °F 38% 30.07 in 10.0 mi WNW 19.6 mph 25.3 mph N/A   Mostly Cloudy
4:53 PM 54.0 °F - 27.0 °F 35% 30.09 in 10.0 mi WNW 21.9 mph 28.8 mph N/A   Overcast
5:53 PM 52.0 °F - 26.1 °F 37% 30.14 in 10.0 mi NW 18.4 mph 28.8 mph N/A   Clear
6:53 PM 48.9 °F - 25.0 °F 39% 30.17 in 10.0 mi NW 11.5 mph - N/A   Clear
7:53 PM 46.9 °F - 24.1 °F 41% 30.22 in 10.0 mi NNW 11.5 mph - N/A   Clear
9:53 PM 43.0 °F 38.8 °F 25.0 °F 49% 30.31 in 10.0 mi NW 6.9 mph - N/A   Clear
10:53 PM 43.0 °F 38.2 °F 24.1 °F 47% 30.33 in 10.0 mi NNW 8.1 mph - N/A   Clear
11:53 PM 39.9 °F 35.1 °F 24.1 °F 53% 30.35 in 10.0 mi NNW 6.9 mph - N/A   Clear